SCP
0 0 0 0 0 0 1 1 1 1 1 1 1 0 0 0 0 0 0 0 1 1 0 0 0 0 0 0 0 0 0 0 0 0 0 0 0 0 0 0 0 0 0 0 0 0 0
0 0 0 0 0 0 1 1 1 1 1 0 1 1 0 0 0 0 0 0 0 1 0 0 0 0 0 0 0 0 0 0 0 0 0 0 0 0 0 0 0 0 0 0 0 0 0
0 0 0 0 0 0 0 -0 0 0 1 0 1 1 0 0 0 0 0 0 0 1 1 0 0 0 0 0 0 0 0 0 0 0 0 0 0 0 0 0 0 0 0 0 0 0 0
0 0 0 0 0 0 0 0 0 0 1 1 0 0 0 0 0 0 0 0 0 1 1 0 0 0 0 0 0 0 0 0 0 0 0 0 0 0 0 0 0 0 0 0 0 0 0
0 0 0 0 0 0 0 0 0 -0 1 1 0 0 0 0 0 0 0 0 0 1 1 0 0 0 0 0 0 0 0 0 0 0 0 0 0 0 0 0 0 0 0 0 0 0 0
0 0 0 0 0 0 0 0 0 0 0 0 0 0 0 0 0 0 0 0 0 1 0 0 0 0 0 0 0 0 0 0 0 0 0 0 0 0 0 0 0 0 0 0 0 0 0
-0 -0 -0 0 0 0 0 0 0 -0 0 0 0 0 0 0 0 1 0 0 0 0 0 0 0 0 0 0 0 0 0 0 0 0 0 0 0 0 0 0 0 0 0 0 0 0 0
-0 0 -0 -0 0 0 0 0 0 -0 0 1 0 0 0 0 0 0 0 0 0 0 0 0 0 0 0 0 0 0 0 0 0 0 0 0 0 0 0 0 0 0 0 0 0 0 0
-0 0 0 -0 -0 0 0 0 0 -0 0 0 0 0 0 0 0 0 0 0 0 0 0 0 0 0 0 0 0 0 0 0 0 0 0 0 0 0 0 0 0 0 0 0 0 0 0
-0 -0 -0 0 0 -0 0 0 0 -0 0 0 0 0 0 0 0 0 0 0 0 0 0 0 0 0 0 0 0 0 0 0 0 0 0 0 0 0 0 0 0 0 0 0 0 0 0
-0 -0 0 0 0 0 0 0 0 -0 0 0 0 0 0 0 0 0 0 0 0 0 0 0 0 0 0 0 0 0 0 0 0 0 0 0 0 0 0 0 0 0 0 0 0 0 0
0 0 0 0 0 0 0 0 0 -0 -0 0 0 0 0 0 0 0 0 0 0 0 0 0 0 0 0 0 0 0 0 0 0 0 0 0 0 0 0 0 0 0 0 0 0 0 0
0 0 0 0 0 0 0 0 0 -0 0 0 0 0 0 0 0 0 0 0 0 0 0 0 0 0 0 0 0 0 0 0 0 0 0 0 0 0 0 0 0 0 0 0 0 0 0
-0 0 0 0 0 0 0 0 0 -0 -0 0 0 0 0 0 0 0 0 0 0 0 0 0 0 0 0 0 0 0 0 0 0 0 0 0 0 0 0 0 0 0 0 0 0 0 0
0 0 0 0 0 0 0 0 0 -0 0 0 0 0 0 0 0 0 0 0 0 0 0 0 0 0 0 0 0 0 0 0 0 0 0 0 0 0 0 0 0 0 0 0 0 0 0
0 0 0 0 0 0 0 0 -0 0 0 0 0 0 0 0 0 0 0 0 0 0 0 0 0 0 0 0 0 0 0 0 0 0 0 0 0 0 0 0 0 0 0 0 0 0 0
0 0 0 0 0 0 0 -0 0 0 0 0 0 0 0 0 0 0 0 0 0 0 0 0 0 0 0 0 0 0 0 0 0 0 0 0 0 0 0 0 0 0 0 0 0 0 0
0 -0 -0 0 0 -0 0 0 0 0 0 0 0 0 0 0 0 0 0 0 0 0 0 0 0 0 0 0 0 0 0 0 0 0 0 0 0 0 0 0 0 0 0 0 0 0 0
-0 -0 0 0 0 0 0 0 0 0 0 0 0 0 0 0 0 0 0 0 0 0 0 0 0 0 0 0 0 0 0 0 0 0 0 0 0 0 0 0 0 0 0 0 0 0 0
0 0 0 0 0 0 0 0 0 0 0 0 0 0 0 0 0 0 0 0 0 0 0 0 0 0 0 0 0 0 0 0 0 0 0 0 0 0 0 0 0 0 0 0 0 0 0
0 0 0 0 0 0 0 0 0 0 0 0 0 0 0 0 0 0 0 0 0 0 0 0 0 0 0 0 0 0 0 0 0 0 0 0 0 0 0 0 0 0 0 0 0 0 0
0 0 0 0 0 0 0 0 0 0 0 0 0 0 0 0 0 0 0 0 0 0 0 0 0 0 0 0 0 0 0 0 0 -0 0 0 0 0 0 0 0 0 0 0 0 0 0
0 0 0 0 0 0 0 0 0 0 0 0 0 0 0 0 0 0 0 0 0 0 0 0 0 0 0 0 0 0 0 0 0 0 0 0 0 0 0 0 0 0 0 0 0 0 0
0 0 0 0 0 0 0 0 0 0 0 0 0 0 0 0 0 0 0 0 0 0 0 0 0 0 0 0 0 0 0 0 0 0 0 0 0 0 0 0 0 0 0 0 0 0 0
0 0 0 0 0 0 0 0 0 0 0 0 0 0 0 0 0 0 0 0 0 0 0 0 0 0 0 0 0 0 0 0 0 0 0 0 0 0 0 0 0 0 0 0 0 0 0
0 0 0 0 0 0 0 0 0 0 0 0 0 0 0 0 0 0 0 0 0 0 0 0 0 0 0 0 0 0 0 0 -0 0 0 0 0 0 0 0 0 0 0 0 0 0 0
0 0 0 -0 -0 0 0 0 0 0 0 0 0 0 0 0 0 0 0 0 0 0 0 0 0 0 0 0 0 0 0 0 0 -0 0 0 0 0 0 0 0 0 0 0 0 0 0
0 0 0 0 0 0 0 0 0 0 0 0 0 0 0 0 0 0 0 0 0 0 0 0 0 0 0 0 0 0 0 0 0 0 0 0 0 0 0 0 0 0 0 0 0 0 0
-0 0 0 0 0 0 0 0 0 0 0 0 0 0 0 0 0 0 0 0 0 0 0 0 0 0 0 0 0 0 0 0 -0 -0 0 0 0 0 0 0 0 0 0 0 0 0 0
Wind_Speed_500mb
79 77 76 78 73 83 83 98 100 94 93 90 90 84 77 69 64 63 64 67 70 62 57 52 53 54 52 45 24 10 16 49 51 42 38 33 29 16 11 16 12 3 6 29 34 39 32
85 82 83 93 75 77 89 77 104 101 99 95 93 90 84 76 66 63 61 62 68 68 60 58 52 57 59 38 43 15 13 37 56 47 40 39 24 19 12 10 13 12 14 17 13 23 16
86 83 85 81 89 81 89 89 90 103 104 100 98 95 90 81 70 66 59 58 61 70 63 59 56 59 58 40 36 37 11 9 35 46 43 44 17 20 10 9 15 10 7 18 26 9 7
83 84 85 87 89 89 84 89 104 84 124 109 98 93 90 82 76 68 60 56 54 65 64 57 52 61 25 58 27 44 49 28 20 37 42 39 28 6 7 6 5 10 4 6 11 21 17
80 82 83 90 93 91 90 86 104 108 116 109 99 94 91 83 77 69 62 54 49 58 60 54 56 55 18 40 50 43 46 39 27 26 36 34 27 8 10 5 3 5 8 9 11 29 10
87 89 82 90 97 99 94 95 94 100 97 108 98 95 96 90 81 71 62 52 48 53 55 53 47 29 28 54 74 46 37 29 40 40 35 19 14 7 2 9 17 10 7 8 15 10 16
97 95 92 93 98 100 101 96 95 106 102 118 100 98 99 96 84 75 68 63 51 33 69 45 44 10 18 36 47 59 50 40 38 35 16 15 10 33 35 11 10 11 11 18 7 19 10
105 110 112 93 95 103 103 98 93 96 100 121 106 103 101 97 87 79 82 69 80 34 48 27 11 39 26 49 37 65 56 37 26 22 16 7 32 30 11 6 7 8 4 7 9 8 15
117 114 109 115 118 121 115 106 90 98 104 122 110 106 106 100 87 86 95 73 63 56 19 27 22 49 38 47 21 61 66 39 23 25 34 29 7 24 20 10 20 19 15 6 10 4 5
127 120 115 113 112 121 123 111 95 89 93 130 118 112 108 101 94 95 90 72 54 54 8 14 19 31 33 31 10 46 70 44 10 34 30 26 16 31 16 30 26 31 17 11 12 5 10
128 109 97 101 98 114 117 112 102 95 109 128 120 115 113 114 100 106 105 81 71 29 11 17 27 21 34 30 30 23 70 37 18 12 15 17 24 30 35 31 24 15 16 25 14 7 5
101 88 95 108 104 119 115 106 98 96 88 129 122 118 115 109 84 90 98 88 61 8 14 16 31 29 30 22 13 35 44 38 15 10 12 15 4 34 23 26 35 17 9 8 5 6 24
45 74 90 104 109 124 116 108 97 92 95 124 123 124 121 111 95 104 105 84 12 16 2 18 25 37 39 19 12 13 23 29 19 23 33 16 31 6 18 23 16 20 18 8 13 15 35
36 68 77 98 120 114 112 107 95 85 83 131 127 122 111 96 100 106 105 30 17 5 12 5 26 37 30 34 22 9 24 28 36 9 8 26 15 32 15 22 12 38 32 9 13 12 18
30 66 71 92 100 107 107 104 96 91 114 132 126 113 92 85 107 117 84 29 10 14 15 22 31 37 22 20 18 16 21 38 35 31 23 15 21 2 20 15 17 17 33 23 6 6 4
43 58 74 93 96 102 99 101 101 123 139 138 117 91 80 89 112 109 37 16 5 11 14 25 12 10 24 40 21 34 32 30 22 48 21 9 5 6 14 25 28 29 14 22 9 10 12
62 54 68 81 90 97 106 113 118 138 140 133 91 49 82 90 100 73 32 15 8 10 18 10 11 11 11 23 19 39 19 9 45 18 52 7 10 2 7 22 39 13 26 18 12 6 10
57 56 65 80 101 98 108 142 137 138 136 115 43 11 92 101 21 13 17 21 16 12 10 8 10 13 12 13 21 30 23 19 42 46 36 30 10 19 28 12 4 27 24 39 20 37 6
49 50 59 117 111 97 139 127 141 142 135 103 29 44 81 92 10 19 12 11 8 9 9 7 8 6 7 14 10 13 16 3 31 30 22 27 16 18 6 6 8 14 30 39 37 4 37
54 62 108 131 121 122 127 135 137 136 110 91 38 13 17 37 17 34 32 16 10 14 9 11 12 11 10 6 8 11 10 6 5 34 49 29 11 20 26 9 10 26 37 36 46 25 45
55 72 93 100 117 121 128 134 133 114 93 89 21 7 14 16 9 23 23 24 15 9 8 13 8 8 14 8 6 10 9 2 6 13 6 12 24 28 29 16 6 21 38 50 49 67 34
59 64 77 93 104 119 126 127 121 98 88 48 19 19 22 13 39 32 16 16 29 11 14 9 14 13 9 13 19 14 14 12 10 10 16 12 14 16 31 26 24 25 32 32 51 58 49
48 60 74 77 95 113 121 114 114 91 66 23 32 54 44 17 8 14 10 17 27 17 4 29 24 14 17 28 20 19 15 11 6 11 10 8 4 14 39 23 29 29 56 48 47 55 60
47 56 66 75 78 82 98 102 99 78 42 38 68 51 21 7 13 9 15 8 21 30 14 12 42 16 13 30 26 26 36 33 29 22 26 11 11 4 17 18 35 46 31 57 61 61 58
52 53 66 74 85 92 92 106 86 62 44 46 59 47 18 9 10 11 24 12 21 29 14 19 27 36 23 17 6 5 6 6 20 34 35 34 15 8 10 24 8 14 18 52 44 64 58
50 50 61 79 88 95 89 84 82 68 51 66 47 36 23 15 11 17 13 18 10 9 6 5 16 23 26 6 6 12 10 13 10 9 41 37 36 15 18 24 17 26 13 53 22 40 63
55 54 69 110 110 98 82 75 72 64 53 47 47 35 34 20 15 31 13 18 18 12 7 9 12 12 29 9 7 7 8 10 7 11 13 15 24 38 32 24 17 10 14 66 29 29 30
58 56 68 95 97 85 84 77 70 64 50 49 45 33 28 18 25 18 20 13 24 26 10 19 11 7 8 15 8 9 9 13 8 10 11 17 11 20 18 13 28 21 48 44 23 6 9
69 76 79 82 72 63 63 60 47 38 28 19 36 30 26 21 17 22 22 20 24 34 30 40 12 12 20 10 10 6 8 6 10 9 8 11 15 9 21 13 4 42 19 8 2 5 7
Wind_Direction_500mb
262 262 261 258 251 239 238 239 236 234 232 227 222 220 219 215 214 217 216 212 208 205 205 206 199 193 186 190 200 187 213 200 201 201 193 185 173 163 178 169 172 213 247 214 232 287 266
258 259 257 256 257 251 233 233 235 234 230 227 222 217 217 215 215 214 213 213 206 202 201 202 200 194 190 204 198 175 69 186 197 193 190 185 194 185 167 195 175 205 227 209 232 249 267
258 254 255 254 253 252 243 247 240 231 229 225 219 217 213 216 216 211 208 207 206 200 196 199 199 196 197 194 209 208 184 84 191 193 187 188 171 186 173 149 221 221 159 264 266 253 255
256 254 250 249 247 247 244 242 235 244 222 219 217 214 211 210 211 207 203 196 199 196 193 194 196 195 207 199 185 196 217 205 169 191 195 189 192 185 191 220 135 152 172 204 245 200 226
255 253 250 248 246 245 246 239 239 238 212 215 212 211 210 201 206 199 195 192 189 187 189 188 190 193 209 199 196 194 202 201 167 181 190 201 206 197 178 152 87 221 199 183 280 208 167
255 248 246 246 245 242 242 238 234 230 216 215 211 207 205 194 198 194 187 180 171 173 179 183 191 182 220 204 200 189 190 188 193 187 189 193 167 139 106 164 203 195 190 194 203 234 216
260 262 260 249 241 240 238 236 230 229 240 212 208 202 203 190 192 187 175 159 152 170 179 185 196 170 185 188 192 194 194 185 190 186 183 183 180 206 200 192 205 169 182 213 236 237 192
260 257 258 242 243 237 234 230 229 227 234 204 204 199 199 186 189 181 178 174 171 194 172 191 195 199 167 180 173 192 184 176 184 195 139 173 216 205 182 189 223 240 229 244 284 274 180
264 255 245 250 245 233 232 227 223 224 221 199 197 192 195 185 184 178 183 182 167 156 148 191 178 185 167 180 175 192 192 183 181 192 192 205 226 168 177 178 216 236 221 227 237 280 206
258 254 252 246 234 228 226 219 218 220 229 192 191 187 189 179 176 180 182 172 161 155 101 180 186 200 170 167 198 197 189 176 193 207 191 229 184 178 176 213 197 226 169 215 262 256 233
261 245 232 226 221 216 212 213 214 215 216 184 185 183 185 179 173 180 177 161 160 160 142 183 173 186 198 180 146 186 188 185 171 167 180 190 184 188 201 210 191 220 175 205 219 227 316
242 221 215 212 218 208 206 206 207 213 218 180 180 180 182 176 177 173 168 162 160 110 228 173 155 167 159 186 188 150 183 198 181 180 203 232 235 193 205 197 195 153 88 57 78 154 251
209 207 213 213 210 201 203 201 203 204 212 176 178 178 180 173 169 170 163 164 162 193 308 168 172 167 171 168 170 159 168 186 189 191 215 194 228 268 197 200 187 181 157 205 214 211 240
208 205 204 184 188 193 194 197 197 199 214 173 175 174 172 173 174 166 161 157 195 188 195 224 150 159 175 148 197 139 166 196 213 179 168 212 224 199 165 219 200 200 193 178 201 198 248
172 189 170 173 176 183 190 193 195 193 182 171 168 166 164 168 170 163 153 182 189 193 161 148 132 158 174 181 159 163 183 206 210 200 200 200 225 250 197 176 175 183 212 205 81 10 67
163 163 175 179 182 185 182 185 186 173 167 165 157 153 157 167 167 161 158 145 208 171 124 139 127 164 176 176 164 189 186 201 212 208 204 208 297 236 181 180 227 216 167 200 214 192 231
174 174 173 180 184 185 183 179 154 158 160 156 144 141 158 163 165 163 184 151 174 120 121 111 139 111 166 176 179 183 197 237 200 172 200 188 200 292 123 204 194 184 205 213 188 175 222
163 171 173 183 186 183 167 154 160 157 152 147 131 112 159 159 153 173 175 143 134 145 110 95 92 95 138 169 190 194 201 197 199 185 195 199 231 228 219 175 212 242 216 201 207 215 223
167 200 209 184 170 147 162 157 153 156 160 144 106 114 157 159 145 165 135 142 123 126 128 133 116 137 168 148 149 178 193 294 180 180 186 181 220 232 208 266 206 229 223 207 223 123 223
121 127 120 149 161 147 150 152 155 153 152 143 121 131 115 160 138 157 158 167 108 111 105 105 115 91 97 135 45 157 168 267 177 199 210 194 199 226 227 225 147 209 201 222 211 225 235
102 119 126 133 143 148 151 155 152 150 149 137 115 94 139 160 176 156 146 156 127 125 101 126 47 147 140 113 118 182 183 256 271 197 153 222 231 215 237 260 313 230 219 215 209 224 218
118 123 130 140 146 152 151 152 152 145 153 147 115 138 101 88 125 136 146 179 165 145 135 181 134 161 155 163 183 176 159 189 193 191 176 190 256 219 238 238 228 237 241 234 222 228 231
125 129 136 140 147 153 153 159 160 153 157 129 119 133 130 130 91 132 181 152 185 124 64 159 141 148 198 217 206 230 230 248 224 174 162 130 306 251 257 224 235 237 230 220 231 235 219
132 139 141 146 150 155 156 164 166 166 162 142 134 137 106 123 120 144 133 102 157 183 132 158 165 159 224 239 245 262 262 256 242 226 196 195 205 125 282 245 220 241 222 217 217 223 224
139 141 150 154 158 159 153 162 161 150 151 155 140 151 113 103 100 112 143 115 143 168 171 159 183 195 175 126 79 305 239 242 236 230 212 205 174 180 246 260 291 264 221 197 198 231 224
139 137 146 156 152 160 168 172 172 158 148 160 146 147 115 108 213 139 125 152 148 150 36 177 158 184 184 155 163 201 214 203 250 243 206 195 208 197 227 244 235 247 178 192 183 252 229
137 140 129 145 158 149 137 133 129 135 152 157 117 131 128 104 140 155 165 175 161 154 131 133 160 156 193 172 216 198 236 187 207 207 165 180 209 208 210 239 278 238 186 142 164 241 200
142 134 143 129 131 126 128 131 134 137 130 153 122 128 122 101 136 159 147 142 165 173 147 160 108 205 160 193 189 214 224 219 180 226 177 175 216 202 207 188 247 174 148 164 204 89 106
131 135 131 134 132 141 146 145 153 161 154 137 128 135 126 107 128 172 176 172 190 191 187 167 189 173 169 187 211 214 222 220 193 240 182 203 195 210 206 201 274 177 339 191 20 204 232
Wind_Speed_850mb
79 77 76 78 73 83 83 98 100 94 93 90 90 84 77 69 64 63 64 67 70 62 57 52 53 54 52 45 24 10 16 49 51 42 38 33 29 16 11 16 12 3 6 29 34 39 32
85 82 83 93 75 77 89 77 104 101 99 95 93 90 84 76 66 63 61 62 68 68 60 58 52 57 59 38 43 15 13 37 56 47 40 39 24 19 12 10 13 12 14 17 13 23 16
86 83 85 81 89 81 89 89 90 103 104 100 98 95 90 81 70 66 59 58 61 70 63 59 56 59 58 40 36 37 11 9 35 46 43 44 17 20 10 9 15 10 7 18 26 9 7
83 84 85 87 89 89 84 89 104 84 124 109 98 93 90 82 76 68 60 56 54 65 64 57 52 61 25 58 27 44 49 28 20 37 42 39 28 6 7 6 5 10 4 6 11 21 17
80 82 83 90 93 91 90 86 104 108 116 109 99 94 91 83 77 69 62 54 49 58 60 54 56 55 18 40 50 43 46 39 27 26 36 34 27 8 10 5 3 5 8 9 11 29 10
87 89 82 90 97 99 94 95 94 100 97 108 98 95 96 90 81 71 62 52 48 53 55 53 47 29 28 54 74 46 37 29 40 40 35 19 14 7 2 9 17 10 7 8 15 10 16
97 95 92 93 98 100 101 96 95 106 102 118 100 98 99 96 84 75 68 63 51 33 69 45 44 10 18 36 47 59 50 40 38 35 16 15 10 33 35 11 10 11 11 18 7 19 10
105 110 112 93 95 103 103 98 93 96 100 121 106 103 101 97 87 79 82 69 80 34 48 27 11 39 26 49 37 65 56 37 26 22 16 7 32 30 11 6 7 8 4 7 9 8 15
117 114 109 115 118 121 115 106 90 98 104 122 110 106 106 100 87 86 95 73 63 56 19 27 22 49 38 47 21 61 66 39 23 25 34 29 7 24 20 10 20 19 15 6 10 4 5
127 120 115 113 112 121 123 111 95 89 93 130 118 112 108 101 94 95 90 72 54 54 8 14 19 31 33 31 10 46 70 44 10 34 30 26 16 31 16 30 26 31 17 11 12 5 10
128 109 97 101 98 114 117 112 102 95 109 128 120 115 113 114 100 106 105 81 71 29 11 17 27 21 34 30 30 23 70 37 18 12 15 17 24 30 35 31 24 15 16 25 14 7 5
101 88 95 108 104 119 115 106 98 96 88 129 122 118 115 109 84 90 98 88 61 8 14 16 31 29 30 22 13 35 44 38 15 10 12 15 4 34 23 26 35 17 9 8 5 6 24
45 74 90 104 109 124 116 108 97 92 95 124 123 124 121 111 95 104 105 84 12 16 2 18 25 37 39 19 12 13 23 29 19 23 33 16 31 6 18 23 16 20 18 8 13 15 35
36 68 77 98 120 114 112 107 95 85 83 131 127 122 111 96 100 106 105 30 17 5 12 5 26 37 30 34 22 9 24 28 36 9 8 26 15 32 15 22 12 38 32 9 13 12 18
30 66 71 92 100 107 107 104 96 91 114 132 126 113 92 85 107 117 84 29 10 14 15 22 31 37 22 20 18 16 21 38 35 31 23 15 21 2 20 15 17 17 33 23 6 6 4
43 58 74 93 96 102 99 101 101 123 139 138 117 91 80 89 112 109 37 16 5 11 14 25 12 10 24 40 21 34 32 30 22 48 21 9 5 6 14 25 28 29 14 22 9 10 12
62 54 68 81 90 97 106 113 118 138 140 133 91 49 82 90 100 73 32 15 8 10 18 10 11 11 11 23 19 39 19 9 45 18 52 7 10 2 7 22 39 13 26 18 12 6 10
57 56 65 80 101 98 108 142 137 138 136 115 43 11 92 101 21 13 17 21 16 12 10 8 10 13 12 13 21 30 23 19 42 46 36 30 10 19 28 12 4 27 24 39 20 37 6
49 50 59 117 111 97 139 127 141 142 135 103 29 44 81 92 10 19 12 11 8 9 9 7 8 6 7 14 10 13 16 3 31 30 22 27 16 18 6 6 8 14 30 39 37 4 37
54 62 108 131 121 122 127 135 137 136 110 91 38 13 17 37 17 34 32 16 10 14 9 11 12 11 10 6 8 11 10 6 5 34 49 29 11 20 26 9 10 26 37 36 46 25 45
55 72 93 100 117 121 128 134 133 114 93 89 21 7 14 16 9 23 23 24 15 9 8 13 8 8 14 8 6 10 9 2 6 13 6 12 24 28 29 16 6 21 38 50 49 67 34
59 64 77 93 104 119 126 127 121 98 88 48 19 19 22 13 39 32 16 16 29 11 14 9 14 13 9 13 19 14 14 12 10 10 16 12 14 16 31 26 24 25 32 32 51 58 49
48 60 74 77 95 113 121 114 114 91 66 23 32 54 44 17 8 14 10 17 27 17 4 29 24 14 17 28 20 19 15 11 6 11 10 8 4 14 39 23 29 29 56 48 47 55 60
47 56 66 75 78 82 98 102 99 78 42 38 68 51 21 7 13 9 15 8 21 30 14 12 42 16 13 30 26 26 36 33 29 22 26 11 11 4 17 18 35 46 31 57 61 61 58
52 53 66 74 85 92 92 106 86 62 44 46 59 47 18 9 10 11 24 12 21 29 14 19 27 36 23 17 6 5 6 6 20 34 35 34 15 8 10 24 8 14 18 52 44 64 58
50 50 61 79 88 95 89 84 82 68 51 66 47 36 23 15 11 17 13 18 10 9 6 5 16 23 26 6 6 12 10 13 10 9 41 37 36 15 18 24 17 26 13 53 22 40 63
55 54 69 110 110 98 82 75 72 64 53 47 47 35 34 20 15 31 13 18 18 12 7 9 12 12 29 9 7 7 8 10 7 11 13 15 24 38 32 24 17 10 14 66 29 29 30
58 56 68 95 97 85 84 77 70 64 50 49 45 33 28 18 25 18 20 13 24 26 10 19 11 7 8 15 8 9 9 13 8 10 11 17 11 20 18 13 28 21 48 44 23 6 9
69 76 79 82 72 63 63 60 47 38 28 19 36 30 26 21 17 22 22 20 24 34 30 40 12 12 20 10 10 6 8 6 10 9 8 11 15 9 21 13 4 42 19 8 2 5 7
Wind_Direction_850mb
262 262 261 258 251 239 238 239 236 234 232 227 222 220 219 215 214 217 216 212 208 205 205 206 199 193 186 190 200 187 213 200 201 201 193 185 173 163 178 169 172 213 247 214 232 287 266
258 259 257 256 257 251 233 233 235 234 230 227 222 217 217 215 215 214 213 213 206 202 201 202 200 194 190 204 198 175 69 186 197 193 190 185 194 185 167 195 175 205 227 209 232 249 267
258 254 255 254 253 252 243 247 240 231 229 225 219 217 213 216 216 211 208 207 206 200 196 199 199 196 197 194 209 208 184 84 191 193 187 188 171 186 173 149 221 221 159 264 266 253 255
256 254 250 249 247 247 244 242 235 244 222 219 217 214 211 210 211 207 203 196 199 196 193 194 196 195 207 199 185 196 217 205 169 191 195 189 192 185 191 220 135 152 172 204 245 200 226
255 253 250 248 246 245 246 239 239 238 212 215 212 211 210 201 206 199 195 192 189 187 189 188 190 193 209 199 196 194 202 201 167 181 190 201 206 197 178 152 87 221 199 183 280 208 167
255 248 246 246 245 242 242 238 234 230 216 215 211 207 205 194 198 194 187 180 171 173 179 183 191 182 220 204 200 189 190 188 193 187 189 193 167 139 106 164 203 195 190 194 203 234 216
260 262 260 249 241 240 238 236 230 229 240 212 208 202 203 190 192 187 175 159 152 170 179 185 196 170 185 188 192 194 194 185 190 186 183 183 180 206 200 192 205 169 182 213 236 237 192
260 257 258 242 243 237 234 230 229 227 234 204 204 199 199 186 189 181 178 174 171 194 172 191 195 199 167 180 173 192 184 176 184 195 139 173 216 205 182 189 223 240 229 244 284 274 180
264 255 245 250 245 233 232 227 223 224 221 199 197 192 195 185 184 178 183 182 167 156 148 191 178 185 167 180 175 192 192 183 181 192 192 205 226 168 177 178 216 236 221 227 237 280 206
258 254 252 246 234 228 226 219 218 220 229 192 191 187 189 179 176 180 182 172 161 155 101 180 186 200 170 167 198 197 189 176 193 207 191 229 184 178 176 213 197 226 169 215 262 256 233
261 245 232 226 221 216 212 213 214 215 216 184 185 183 185 179 173 180 177 161 160 160 142 183 173 186 198 180 146 186 188 185 171 167 180 190 184 188 201 210 191 220 175 205 219 227 316
242 221 215 212 218 208 206 206 207 213 218 180 180 180 182 176 177 173 168 162 160 110 228 173 155 167 159 186 188 150 183 198 181 180 203 232 235 193 205 197 195 153 88 57 78 154 251
209 207 213 213 210 201 203 201 203 204 212 176 178 178 180 173 169 170 163 164 162 193 308 168 172 167 171 168 170 159 168 186 189 191 215 194 228 268 197 200 187 181 157 205 214 211 240
208 205 204 184 188 193 194 197 197 199 214 173 175 174 172 173 174 166 161 157 195 188 195 224 150 159 175 148 197 139 166 196 213 179 168 212 224 199 165 219 200 200 193 178 201 198 248
172 189 170 173 176 183 190 193 195 193 182 171 168 166 164 168 170 163 153 182 189 193 161 148 132 158 174 181 159 163 183 206 210 200 200 200 225 250 197 176 175 183 212 205 81 10 67
163 163 175 179 182 185 182 185 186 173 167 165 157 153 157 167 167 161 158 145 208 171 124 139 127 164 176 176 164 189 186 201 212 208 204 208 297 236 181 180 227 216 167 200 214 192 231
174 174 173 180 184 185 183 179 154 158 160 156 144 141 158 163 165 163 184 151 174 120 121 111 139 111 166 176 179 183 197 237 200 172 200 188 200 292 123 204 194 184 205 213 188 175 222
163 171 173 183 186 183 167 154 160 157 152 147 131 112 159 159 153 173 175 143 134 145 110 95 92 95 138 169 190 194 201 197 199 185 195 199 231 228 219 175 212 242 216 201 207 215 223
167 200 209 184 170 147 162 157 153 156 160 144 106 114 157 159 145 165 135 142 123 126 128 133 116 137 168 148 149 178 193 294 180 180 186 181 220 232 208 266 206 229 223 207 223 123 223
121 127 120 149 161 147 150 152 155 153 152 143 121 131 115 160 138 157 158 167 108 111 105 105 115 91 97 135 45 157 168 267 177 199 210 194 199 226 227 225 147 209 201 222 211 225 235
102 119 126 133 143 148 151 155 152 150 149 137 115 94 139 160 176 156 146 156 127 125 101 126 47 147 140 113 118 182 183 256 271 197 153 222 231 215 237 260 313 230 219 215 209 224 218
118 123 130 140 146 152 151 152 152 145 153 147 115 138 101 88 125 136 146 179 165 145 135 181 134 161 155 163 183 176 159 189 193 191 176 190 256 219 238 238 228 237 241 234 222 228 231
125 129 136 140 147 153 153 159 160 153 157 129 119 133 130 130 91 132 181 152 185 124 64 159 141 148 198 217 206 230 230 248 224 174 162 130 306 251 257 224 235 237 230 220 231 235 219
132 139 141 146 150 155 156 164 166 166 162 142 134 137 106 123 120 144 133 102 157 183 132 158 165 159 224 239 245 262 262 256 242 226 196 195 205 125 282 245 220 241 222 217 217 223 224
139 141 150 154 158 159 153 162 161 150 151 155 140 151 113 103 100 112 143 115 143 168 171 159 183 195 175 126 79 305 239 242 236 230 212 205 174 180 246 260 291 264 221 197 198 231 224
139 137 146 156 152 160 168 172 172 158 148 160 146 147 115 108 213 139 125 152 148 150 36 177 158 184 184 155 163 201 214 203 250 243 206 195 208 197 227 244 235 247 178 192 183 252 229
137 140 129 145 158 149 137 133 129 135 152 157 117 131 128 104 140 155 165 175 161 154 131 133 160 156 193 172 216 198 236 187 207 207 165 180 209 208 210 239 278 238 186 142 164 241 200
142 134 143 129 131 126 128 131 134 137 130 153 122 128 122 101 136 159 147 142 165 173 147 160 108 205 160 193 189 214 224 219 180 226 177 175 216 202 207 188 247 174 148 164 204 89 106
131 135 131 134 132 141 146 145 153 161 154 137 128 135 126 107 128 172 176 172 190 191 187 167 189 173 169 187 211 214 222 220 193 240 182 203 195 210 206 201 274 177 339 191 20 204 232